This is the latest recevied weather packets stored in our database for station/object G1SCQ. If no packets are shown the sender has not sent any weather packets the latest 10 day(s).
| Time | Temp. | Humidity | Pressure | Rain* | Wind** | Luminosity | Snow |
|---|---|---|---|---|---|---|---|
| 1777705204 | 12.22° C | 93% | 1016.9 hPa | 0 mm | - | 97 W/m² | - |
| 1777704844 | 12.22° C | 93% | 1016.8 hPa | 0 mm | - | 94 W/m² | - |
| 1777704305 | 12.22° C | 94% | 1016.9 hPa | 0 mm | - | 87 W/m² | - |
| 1777703764 | 11.67° C | 95% | 1016.8 hPa | 0 mm | - | 81 W/m² | - |
| 1777703224 | 11.67° C | 95% | 1016.6 hPa | 0 mm | - | 70 W/m² | - |
| 1777702684 | 11.67° C | 96% | 1016.6 hPa | 0 mm | - | 55 W/m² | - |
| 1777702144 | 11.67° C | 96% | 1016.6 hPa | 0 mm | - | 44 W/m² | - |
| 1777701604 | 11.67° C | 96% | 1016.6 hPa | 0 mm | - | 41 W/m² | - |
| 1777701244 | 11.67° C | 96% | 1016.8 hPa | 0 mm | - | 41 W/m² | - |
| 1777700704 | 11.67° C | 96% | 1016.7 hPa | 0 mm | - | 49 W/m² | - |
| 1777700164 | 11.67° C | 97% | 1016.7 hPa | 0 mm | - | 41 W/m² | - |
| 1777699624 | 11.11° C | 96% | 1016.7 hPa | 0 mm | - | 26 W/m² | - |
| 1777699084 | 11.11° C | 97% | 1016.5 hPa | 0 mm | - | 22 W/m² | - |
| 1777698544 | 11.67° C | 97% | 1016.5 hPa | 0 mm | - | 21 W/m² | - |
| 1777698004 | 11.11° C | 97% | 1016.6 hPa | 0 mm | - | 17 W/m² | - |
| 1777697644 | 11.11° C | 96% | 1016.6 hPa | 0 mm | - | 12 W/m² | - |
| 1777697104 | 11.11° C | 96% | 1016.3 hPa | 0 mm | - | 7 W/m² | - |
| 1777696564 | 11.11° C | 96% | 1016.4 hPa | 0 mm | - | 4 W/m² | - |
| 1777696024 | 11.11° C | 96% | 1016.4 hPa | 0 mm | - | 2 W/m² | - |
| 1777695484 | 11.67° C | 96% | 1016.5 hPa | 0 mm | - | 1 W/m² | - |
| 1777694944 | 11.67° C | 95% | 1016.4 hPa | 0 mm | - | 0 W/m² | - |
| 1777694404 | 11.67° C | 95% | 1016.4 hPa | 0 mm | - | 0 W/m² | - |
| 1777694044 | 11.67° C | 94% | 1016.3 hPa | 0 mm | - | 0 W/m² | - |
| 1777693504 | 11.67° C | 94% | 1016.4 hPa | 0 mm | - | 0 W/m² | - |
| 1777692964 | 12.22° C | 94% | 1016.4 hPa | 0 mm | - | 0 W/m² | - |
* Rain latest hour (hover to see other rain measurements)
** Current wind speed in m/s (hover to see current wind gust speed)